| time (UTC) | temp C | wind direction | speed KPH | gust KPH | rain 1hr cm | rain 24hr cm | rain mn cm | humidity % | barometer mb |
| 20260506143220 | 20 | 155 | 3.2 | 8.0 | 0.00 | 0.00 | 0.00 | 69 | 1010.9 |
| 20260506142718 | 20 | 179 | 3.2 | 14.5 | 0.00 | 0.00 | 0.00 | 70 | 1010.9 |
| 20260506142216 | 20 | 157 | 6.4 | 11.3 | 0.00 | 0.00 | 0.00 | 69 | 1011.0 |
| 20260506141714 | 20 | 194 | 3.2 | 8.0 | 0.00 | 0.00 | 0.00 | 69 | 1010.9 |
| 20260506141212 | 20 | 176 | 1.6 | 11.3 | 0.00 | 0.00 | 0.00 | 69 | 1011.0 |
| 20260506140709 | 20 | 308 | 3.2 | 14.5 | 0.00 | 0.00 | 0.00 | 68 | 1011.0 |
| 20260506140206 | 21 | 307 | 4.8 | 9.7 | 0.00 | 0.00 | 0.00 | 68 | 1011.3 |
| 20260506135703 | 20 | 231 | 1.6 | 16.1 | 0.00 | 0.00 | 0.00 | 69 | 1010.9 |
| 20260506135159 | 20 | 171 | 4.8 | 17.7 | 0.00 | 0.00 | 0.00 | 69 | 1011.3 |
| 20260506134656 | 20 | 302 | 1.6 | 17.7 | 0.00 | 0.00 | 0.00 | 69 | 1011.2 |
| 20260506134152 | 20 | 297 | 4.8 | 22.5 | 0.00 | 0.00 | 0.00 | 69 | 1011.3 |
| 20260506133649 | 20 | 188 | 6.4 | 19.3 | 0.00 | 0.00 | 0.00 | 70 | 1011.1 |
| 20260506133146 | 20 | 280 | 1.6 | 14.5 | 0.00 | 0.00 | 0.00 | 70 | 1011.2 |
| 20260506132643 | 20 | 135 | 8.0 | 16.1 | 0.00 | 0.00 | 0.00 | 71 | 1011.3 |
| 20260506132140 | 20 | 218 | 4.8 | 19.3 | 0.00 | 0.00 | 0.00 | 71 | 1011.2 |
| 20260506131638 | 20 | 264 | 1.6 | 8.0 | 0.00 | 0.00 | 0.00 | 71 | 1011.3 |
| 20260506131133 | 20 | 186 | 0.0 | 12.9 | 0.00 | 0.00 | 0.00 | 72 | 1011.5 |
| 20260506130630 | 20 | 183 | 4.8 | 12.9 | 0.00 | 0.00 | 0.00 | 71 | 1011.3 |
| 20260506130128 | 20 | 147 | 1.6 | 8.0 | 0.00 | 0.00 | 0.00 | 72 | 1011.1 |
| 20260506125626 | 20 | 151 | 8.0 | 14.5 | 0.00 | 0.00 | 0.00 | 72 | 1011.0 |
| 20260506125123 | 19 | 176 | 6.4 | 20.9 | 0.00 | 0.00 | 0.00 | 73 | 1011.0 |
| 20260506124621 | 18 | 149 | 6.4 | 17.7 | 0.00 | 0.00 | 0.00 | 74 | 1011.0 |
| 20260506124119 | 18 | 190 | 4.8 | 16.1 | 0.00 | 0.00 | 0.00 | 74 | 1011.2 |
| 20260506123616 | 18 | 170 | 12.9 | 14.5 | 0.00 | 0.00 | 0.00 | 75 | 1011.2 |
| 20260506123115 | 18 | 256 | 3.2 | 14.5 | 0.00 | 0.00 | 0.00 | 75 | 1011.4 |
| 20260506122611 | 18 | 230 | 11.3 | 17.7 | 0.00 | 0.00 | 0.00 | 75 | 1011.3 |
| 20260506122109 | 18 | 198 | 4.8 | 19.3 | 0.00 | 0.00 | 0.00 | 75 | 1011.5 |
| 20260506121606 | 18 | 233 | 4.8 | 20.9 | 0.00 | 0.00 | 0.00 | 75 | 1011.2 |
| 20260506121102 | 18 | 189 | 3.2 | 20.9 | 0.00 | 0.00 | 0.00 | 75 | 1011.6 |
| 20260506120601 | 19 | 159 | 20.9 | 22.5 | 0.00 | 0.00 | 0.00 | 74 | 1011.5 |
| 20260506120058 | 18 | 176 | 11.3 | 17.7 | 0.00 | 0.00 | 0.00 | 74 | 1011.6 |
| 20260506115556 | 18 | 248 | 6.4 | 17.7 | 0.00 | 0.00 | 0.00 | 75 | 1011.4 |
| 20260506115054 | 18 | 185 | 8.0 | 16.1 | 0.00 | 0.00 | 0.00 | 76 | 1011.5 |
| 20260506114551 | 18 | 191 | 12.9 | 12.9 | 0.00 | 0.00 | 0.00 | 77 | 1011.6 |
| 20260506114049 | 18 | 131 | 0.0 | 16.1 | 0.00 | 0.00 | 0.00 | 77 | 1011.4 |
| 20260506113547 | 17 | 162 | 11.3 | 19.3 | 0.00 | 0.00 | 0.00 | 78 | 1011.4 |
| 20260506113044 | 17 | 220 | 4.8 | 27.4 | 0.00 | 0.00 | 0.00 | 79 | 1011.6 |
| 20260506112540 | 17 | 268 | 4.8 | 24.1 | 0.00 | 0.00 | 0.00 | 79 | 1011.7 |
| 20260506112038 | 17 | 239 | 6.4 | 25.7 | 0.00 | 0.00 | 0.00 | 79 | 1011.5 |
| 20260506111536 | 17 | 175 | 8.0 | 16.1 | 0.00 | 0.00 | 0.00 | 79 | 1011.4 |
| 20260506111032 | 17 | 204 | 14.5 | 24.1 | 0.00 | 0.00 | 0.00 | 80 | 1011.5 |
| 20260506110530 | 17 | 179 | 1.6 | 14.5 | 0.00 | 0.00 | 0.00 | 81 | 1011.4 |
| 20260506110027 | 17 | 255 | 3.2 | 17.7 | 0.00 | 0.00 | 0.00 | 82 | 1011.5 |
| 20260506105523 | 17 | 186 | 4.8 | 12.9 | 0.00 | 0.00 | 0.00 | 82 | 1011.2 |
| 20260506105021 | 17 | 124 | 3.2 | 17.7 | 0.00 | 0.00 | 0.00 | 82 | 1011.4 |
| 20260506104519 | 17 | 155 | 6.4 | 14.5 | 0.00 | 0.00 | 0.00 | 82 | 1011.3 |
| 20260506104016 | 16 | 238 | 4.8 | 22.5 | 0.00 | 0.00 | 0.00 | 83 | 1011.3 |
| 20260506103513 | 16 | 236 | 8.0 | 17.7 | 0.00 | 0.00 | 0.00 | 83 | 1011.3 |
| 20260506103010 | 16 | 141 | 3.2 | 17.7 | 0.00 | 0.00 | 0.00 | 83 | 1011.4 |
| 20260506102508 | 16 | 169 | 9.7 | 17.7 | 0.00 | 0.00 | 0.00 | 84 | 1011.3 |
| 20260506102005 | 16 | 158 | 8.0 | 22.5 | 0.00 | 0.00 | 0.00 | 84 | 1011.2 |
| 20260506101502 | 16 | 337 | 1.6 | 11.3 | 0.00 | 0.00 | 0.00 | 84 | 1011.1 |
| 20260506100959 | 16 | 168 | 1.6 | 6.4 | 0.00 | 0.00 | 0.00 | 84 | 1010.9 |
| 20260506100457 | 16 | 187 | 6.4 | 17.7 | 0.00 | 0.00 | 0.00 | 84 | 1011.0 |
| 20260506095955 | 16 | 119 | 3.2 | 22.5 | 0.00 | 0.00 | 0.00 | 84 | 1011.3 |
| 20260506095454 | 16 | 193 | 8.0 | 19.3 | 0.00 | 0.00 | 0.00 | 84 | 1011.3 |
| 20260506094949 | 16 | 166 | 3.2 | 9.7 | 0.00 | 0.00 | 0.00 | 84 | 1011.3 |
| 20260506094447 | 16 | 118 | 1.6 | 19.3 | 0.00 | 0.00 | 0.00 | 84 | 1011.1 |
| 20260506093945 | 16 | 148 | 3.2 | 12.9 | 0.00 | 0.00 | 0.00 | 84 | 1011.1 |
| 20260506093443 | 16 | 290 | 3.2 | 11.3 | 0.00 | 0.00 | 0.00 | 84 | 1011.1 |
| 20260506092940 | 16 | 150 | 0.0 | 14.5 | 0.00 | 0.00 | 0.00 | 84 | 1011.2 |
| 20260506092438 | 16 | 191 | 9.7 | 30.6 | 0.00 | 0.00 | 0.00 | 84 | 1011.2 |
| 20260506091934 | 16 | 173 | 4.8 | 17.7 | 0.00 | 0.00 | 0.00 | 84 | 1011.4 |
| 20260506091433 | 16 | 199 | 4.8 | 12.9 | 0.00 | 0.00 | 0.00 | 84 | 1011.2 |
| 20260506090930 | 16 | 208 | 3.2 | 9.7 | 0.00 | 0.00 | 0.00 | 84 | 1011.2 |
| 20260506090427 | 16 | 220 | 6.4 | 11.3 | 0.00 | 0.00 | 0.00 | 84 | 1011.3 |
| 20260506085924 | 16 | 177 | 4.8 | 14.5 | 0.00 | 0.00 | 0.00 | 85 | 1011.5 |
| 20260506085420 | 16 | 156 | 6.4 | 14.5 | 0.00 | 0.00 | 0.00 | 84 | 1011.5 |
| 20260506084917 | 16 | 157 | 3.2 | 25.7 | 0.00 | 0.00 | 0.00 | 84 | 1011.3 |
| 20260506084414 | 16 | 195 | 9.7 | 16.1 | 0.00 | 0.00 | 0.00 | 84 | 1011.3 |
| 20260506083910 | 16 | 202 | 3.2 | 12.9 | 0.00 | 0.00 | 0.00 | 84 | 1011.4 |
| 20260506083407 | 16 | 154 | 3.2 | 14.5 | 0.00 | 0.00 | 0.00 | 84 | 1011.4 |
| 20260506082905 | 16 | 188 | 4.8 | 11.3 | 0.00 | 0.00 | 0.00 | 84 | 1011.4 |
| 20260506082401 | 16 | 168 | 14.5 | 17.7 | 0.00 | 0.00 | 0.00 | 83 | 1011.4 |
| 20260506081857 | 16 | 158 | 4.8 | 9.7 | 0.00 | 0.00 | 0.00 | 83 | 1011.6 |
| 20260506081356 | 17 | 232 | 4.8 | 14.5 | 0.00 | 0.00 | 0.00 | 82 | 1011.4 |
| 20260506080853 | 17 | 154 | 8.0 | 12.9 | 0.00 | 0.00 | 0.00 | 82 | 1011.5 |
| 20260506080349 | 17 | 166 | 8.0 | 12.9 | 0.00 | 0.00 | 0.00 | 82 | 1011.6 |
| 20260506073333 | 17 | 226 | 6.4 | 20.9 | 0.00 | 0.00 | 0.00 | 81 | 1011.6 |
| 20260506072830 | 17 | 182 | 8.0 | 17.7 | 0.00 | 0.00 | 0.00 | 81 | 1011.7 |
| 20260506072328 | 17 | 191 | 3.2 | 19.3 | 0.00 | 0.00 | 0.00 | 81 | 1011.8 |
| 20260506071825 | 17 | 138 | 3.2 | 16.1 | 0.00 | 0.00 | 0.00 | 81 | 1011.7 |
| 20260506071323 | 17 | 94 | 1.6 | 19.3 | 0.00 | 0.00 | 0.00 | 80 | 1011.8 |
| 20260506070820 | 17 | 114 | 0.0 | 16.1 | 0.00 | 0.00 | 0.00 | 80 | 1011.8 |
| 20260506070317 | 17 | 300 | 1.6 | 11.3 | 0.00 | 0.00 | 0.00 | 81 | 1011.6 |
| 20260506062254 | 16 | 130 | 3.2 | 9.7 | 0.00 | 0.00 | 0.00 | 79 | 1011.6 |
| 20260506061750 | 16 | 149 | 4.8 | 14.5 | 0.00 | 0.00 | 0.00 | 78 | 1011.5 |
| 20260506061247 | 16 | 135 | 9.7 | 14.5 | 0.00 | 0.00 | 0.00 | 78 | 1011.6 |
| 20260506060746 | 16 | 154 | 4.8 | 12.9 | 0.00 | 0.00 | 0.00 | 78 | 1011.8 |
| 20260506060243 | 16 | 166 | 3.2 | 9.7 | 0.00 | 0.00 | 0.00 | 77 | 1011.7 |
| 20260506051215 | 18 | 255 | 3.2 | 12.9 | 0.00 | 0.00 | 0.00 | 74 | 1012.3 |
| 20260506050713 | 18 | 223 | 4.8 | 14.5 | 0.00 | 0.00 | 0.00 | 74 | 1012.2 |
| 20260506050210 | 18 | 186 | 6.4 | 14.5 | 0.00 | 0.00 | 0.00 | 74 | 1012.1 |
| 20260506044701 | 18 | 195 | 4.8 | 17.7 | 0.00 | 0.00 | 0.00 | 72 | 1012.3 |
| 20260506044157 | 18 | 205 | 14.5 | 19.3 | 0.00 | 0.00 | 0.00 | 73 | 1012.2 |
| 20260506043655 | 18 | 99 | 4.8 | 17.7 | 0.00 | 0.00 | 0.00 | 72 | 1012.3 |
| 20260506043152 | 18 | 269 | 0.0 | 16.1 | 0.00 | 0.00 | 0.00 | 72 | 1012.2 |
| 20260506042652 | 18 | 138 | 4.8 | 14.5 | 0.00 | 0.00 | 0.00 | 71 | 1012.2 |
| 20260506042149 | 18 | 170 | 4.8 | 32.2 | 0.00 | 0.00 | 0.00 | 71 | 1012.1 |
| 20260506041652 | 18 | 183 | 3.2 | 17.7 | 0.00 | 0.00 | 0.00 | 71 | 1012.1 |
| 20260506041144 | 18 | 218 | 9.7 | 29.0 | 0.00 | 0.00 | 0.00 | 70 | 1012.1 |
| 20260506040642 | 18 | 195 | 17.7 | 17.7 | 0.00 | 0.00 | 0.00 | 70 | 1012.0 |
| 20260506040138 | 19 | 161 | 14.5 | 20.9 | 0.00 | 0.00 | 0.00 | 69 | 1012.0 |
| 20260506035635 | 19 | 207 | 4.8 | 17.7 | 0.00 | 0.00 | 0.00 | 69 | 1012.0 |
| 20260506035131 | 19 | 186 | 9.7 | 22.5 | 0.00 | 0.00 | 0.00 | 68 | 1012.2 |
| 20260506034629 | 19 | 180 | 6.4 | 22.5 | 0.00 | 0.00 | 0.00 | 68 | 1012.1 |
| 20260506034126 | 19 | 255 | 4.8 | 27.4 | 0.00 | 0.00 | 0.00 | 67 | 1012.0 |
| 20260506033623 | 19 | 176 | 4.8 | 32.2 | 0.00 | 0.00 | 0.00 | 67 | 1012.1 |
| 20260506033120 | 19 | 66 | 3.2 | 22.5 | 0.00 | 0.00 | 0.00 | 67 | 1012.1 |
| 20260506032617 | 19 | 188 | 8.0 | 20.9 | 0.00 | 0.00 | 0.00 | 67 | 1012.1 |
| 20260506032114 | 19 | 177 | 9.7 | 22.5 | 0.00 | 0.00 | 0.00 | 67 | 1012.0 |
| 20260506031611 | 19 | 149 | 6.4 | 27.4 | 0.00 | 0.00 | 0.00 | 66 | 1011.9 |
| 20260506031108 | 19 | 185 | 12.9 | 25.7 | 0.00 | 0.00 | 0.00 | 66 | 1011.9 |
| 20260506030607 | 19 | 159 | 6.4 | 32.2 | 0.00 | 0.00 | 0.00 | 66 | 1011.8 |
| 20260506030103 | 19 | 174 | 9.7 | 17.7 | 0.00 | 0.00 | 0.00 | 66 | 1012.0 |
| 20260506025600 | 19 | 271 | 11.3 | 17.7 | 0.00 | 0.00 | 0.00 | 66 | 1012.0 |
| 20260506025056 | 19 | 215 | 17.7 | 19.3 | 0.00 | 0.00 | 0.00 | 66 | 1011.9 |
| 20260506024554 | 19 | 205 | 3.2 | 16.1 | 0.00 | 0.00 | 0.00 | 66 | 1012.2 |
| 20260506024050 | 19 | 146 | 1.6 | 24.1 | 0.00 | 0.00 | 0.00 | 66 | 1012.1 |
| 20260506023545 | 19 | 150 | 4.8 | 20.9 | 0.00 | 0.00 | 0.00 | 66 | 1011.9 |
| 20260506023043 | 19 | 163 | 3.2 | 22.5 | 0.00 | 0.00 | 0.00 | 66 | 1012.1 |
| 20260506022541 | 19 | 167 | 9.7 | 24.1 | 0.00 | 0.00 | 0.00 | 66 | 1012.0 |
| 20260506022038 | 19 | 199 | 4.8 | 19.3 | 0.00 | 0.00 | 0.00 | 66 | 1012.1 |
| 20260506021535 | 19 | 276 | 4.8 | 24.1 | 0.00 | 0.00 | 0.00 | 65 | 1012.1 |
| 20260506021033 | 19 | 169 | 8.0 | 14.5 | 0.00 | 0.00 | 0.00 | 66 | 1011.9 |
| 20260506020530 | 19 | 156 | 4.8 | 22.5 | 0.00 | 0.00 | 0.00 | 66 | 1012.0 |
| 20260506020027 | 19 | 192 | 6.4 | 22.5 | 0.00 | 0.00 | 0.00 | 65 | 1011.9 |
| 20260506015525 | 20 | 198 | 8.0 | 20.9 | 0.00 | 0.00 | 0.00 | 65 | 1012.0 |
| 20260506015022 | 20 | 173 | 14.5 | 24.1 | 0.00 | 0.00 | 0.00 | 64 | 1011.9 |
| 20260506014519 | 20 | 137 | 11.3 | 17.7 | 0.00 | 0.00 | 0.00 | 64 | 1012.1 |
| 20260506014015 | 20 | 151 | 6.4 | 24.1 | 0.00 | 0.00 | 0.00 | 64 | 1011.9 |
| 20260506013513 | 19 | 172 | 11.3 | 17.7 | 0.00 | 0.00 | 0.00 | 64 | 1011.9 |
| 20260506013010 | 19 | 233 | 9.7 | 22.5 | 0.00 | 0.00 | 0.00 | 64 | 1011.7 |
| 20260506012505 | 19 | 209 | 6.4 | 20.9 | 0.00 | 0.00 | 0.00 | 65 | 1011.7 |
| 20260506012003 | 18 | 169 | 6.4 | 17.7 | 0.00 | 0.00 | 0.00 | 65 | 1011.8 |
| 20260506011500 | 18 | 158 | 11.3 | 16.1 | 0.00 | 0.00 | 0.00 | 65 | 1011.6 |
| 20260506010956 | 18 | 199 | 4.8 | 20.9 | 0.00 | 0.00 | 0.00 | 65 | 1011.7 |
| 20260506010456 | 18 | 144 | 4.8 | 14.5 | 0.00 | 0.00 | 0.00 | 65 | 1011.6 |
| 20260506005951 | 18 | 174 | 6.4 | 20.9 | 0.00 | 0.00 | 0.00 | 65 | 1011.6 |
| 20260506005449 | 18 | 173 | 8.0 | 17.7 | 0.00 | 0.00 | 0.00 | 65 | 1011.5 |
| 20260506004944 | 18 | 172 | 4.8 | 17.7 | 0.00 | 0.00 | 0.00 | 64 | 1011.3 |
| 20260506004442 | 19 | 174 | 6.4 | 17.7 | 0.00 | 0.00 | 0.00 | 64 | 1011.4 |
| 20260506003938 | 19 | 180 | 8.0 | 16.1 | 0.00 | 0.00 | 0.00 | 64 | 1011.3 |
| 20260506003435 | 19 | 150 | 4.8 | 14.5 | 0.00 | 0.00 | 0.00 | 64 | 1011.0 |
| 20260506002931 | 19 | 124 | 3.2 | 16.1 | 0.00 | 0.00 | 0.00 | 64 | 1011.0 |
| 20260506002427 | 19 | 158 | 8.0 | 12.9 | 0.00 | 0.00 | 0.00 | 64 | 1011.1 |
| 20260506001923 | 19 | 167 | 3.2 | 20.9 | 0.00 | 0.00 | 0.00 | 64 | 1011.0 |
| 20260506001420 | 19 | 152 | 9.7 | 16.1 | 0.00 | 0.00 | 0.00 | 64 | 1011.1 |
| 20260506000917 | 19 | 180 | 9.7 | 16.1 | 0.00 | 0.00 | 0.00 | 64 | 1011.0 |
| 20260506000416 | 19 | 163 | 8.0 | 14.5 | 0.00 | 0.00 | 0.00 | 64 | 1011.1 |
| 20260505235911 | 19 | 151 | 1.6 | 9.7 | 0.00 | 0.00 | 0.00 | 65 | 1010.8 |
| 20260505235410 | 19 | 177 | 8.0 | 9.7 | 0.00 | 0.00 | 0.00 | 64 | 1010.9 |
| 20260505234906 | 20 | 133 | 6.4 | 11.3 | 0.00 | 0.00 | 0.00 | 63 | 1010.7 |
| 20260505234404 | 20 | 129 | 4.8 | 12.9 | 0.00 | 0.00 | 0.00 | 61 | 1010.5 |
| 20260505233900 | 20 | 148 | 9.7 | 12.9 | 0.00 | 0.00 | 0.00 | 62 | 1010.6 |
| 20260505233358 | 20 | 207 | 0.0 | 6.4 | 0.00 | 0.00 | 0.00 | 62 | 1010.6 |
| 20260505232855 | 20 | 155 | 4.8 | 9.7 | 0.00 | 0.00 | 0.00 | 62 | 1010.5 |
| 20260505232354 | 21 | 180 | 6.4 | 12.9 | 0.00 | 0.00 | 0.00 | 61 | 1010.1 |
| 20260505231850 | 21 | 159 | 8.0 | 9.7 | 0.00 | 0.00 | 0.00 | 61 | 1010.2 |
| 20260505231347 | 21 | 167 | 6.4 | 14.5 | 0.00 | 0.00 | 0.00 | 61 | 1010.2 |
| 20260505230845 | 21 | 156 | 11.3 | 14.5 | 0.00 | 0.00 | 0.00 | 61 | 1010.2 |
| 20260505230342 | 21 | 182 | 6.4 | 11.3 | 0.00 | 0.00 | 0.00 | 61 | 1010.0 |
| 20260505225839 | 21 | 164 | 8.0 | 19.3 | 0.00 | 0.00 | 0.00 | 61 | 1009.9 |
| 20260505225336 | 21 | 183 | 6.4 | 17.7 | 0.00 | 0.00 | 0.00 | 60 | 1010.2 |
| 20260505224831 | 21 | 160 | 11.3 | 17.7 | 0.00 | 0.00 | 0.00 | 60 | 1010.1 |
| 20260505224330 | 21 | 154 | 8.0 | 16.1 | 0.00 | 0.00 | 0.00 | 58 | 1009.9 |
| 20260505223826 | 21 | 153 | 14.5 | 27.4 | 0.00 | 0.00 | 0.00 | 58 | 1010.0 |
| 20260505223323 | 22 | 173 | 6.4 | 22.5 | 0.00 | 0.00 | 0.00 | 57 | 1009.9 |
| 20260505222819 | 23 | 114 | 6.4 | 24.1 | 0.00 | 0.00 | 0.00 | 54 | 1009.9 |
| 20260505222315 | 23 | 165 | 11.3 | 22.5 | 0.00 | 0.00 | 0.00 | 52 | 1009.7 |
| 20260505221813 | 24 | 156 | 6.4 | 20.9 | 0.00 | 0.00 | 0.00 | 50 | 1009.5 |
| 20260505221309 | 25 | 166 | 4.8 | 17.7 | 0.00 | 0.00 | 0.00 | 48 | 1009.5 |
| 20260505220806 | 25 | 162 | 6.4 | 19.3 | 0.00 | 0.00 | 0.00 | 48 | 1009.6 |
| 20260505220303 | 25 | 180 | 6.4 | 16.1 | 0.00 | 0.00 | 0.00 | 49 | 1009.5 |
| 20260505215801 | 25 | 150 | 6.4 | 17.7 | 0.00 | 0.00 | 0.00 | 44 | 1009.5 |
| 20260505215259 | 25 | 196 | 4.8 | 12.9 | 0.00 | 0.00 | 0.00 | 47 | 1009.5 |
| 20260505214756 | 24 | 198 | 9.7 | 20.9 | 0.00 | 0.00 | 0.00 | 49 | 1009.4 |
| 20260505214253 | 25 | 194 | 12.9 | 12.9 | 0.00 | 0.00 | 0.00 | 48 | 1009.4 |
| 20260505213751 | 26 | 163 | 4.8 | 25.7 | 0.00 | 0.00 | 0.00 | 42 | 1009.4 |
| 20260505213248 | 26 | 180 | 9.7 | 14.5 | 0.00 | 0.00 | 0.00 | 42 | 1009.2 |
| 20260505212743 | 28 | 214 | 4.8 | 33.8 | 0.00 | 0.00 | 0.00 | 35 | 1009.2 |
| 20260505212241 | 27 | 148 | 6.4 | 17.7 | 0.00 | 0.00 | 0.00 | 37 | 1009.1 |
| 20260505211738 | 25 | 175 | 6.4 | 11.3 | 0.00 | 0.00 | 0.00 | 47 | 1009.3 |
| 20260505211235 | 25 | 157 | 6.4 | 17.7 | 0.00 | 0.00 | 0.00 | 47 | 1009.1 |
| 20260505210731 | 25 | 173 | 6.4 | 19.3 | 0.00 | 0.00 | 0.00 | 47 | 1009.1 |
| 20260505210228 | 26 | 155 | 9.7 | 14.5 | 0.00 | 0.00 | 0.00 | 45 | 1009.2 |
| 20260505205726 | 27 | 158 | 8.0 | 22.5 | 0.00 | 0.00 | 0.00 | 39 | 1009.0 |
| 20260505205224 | 25 | 211 | 4.8 | 24.1 | 0.00 | 0.00 | 0.00 | 44 | 1009.1 |
| 20260505204720 | 25 | 177 | 3.2 | 20.9 | 0.00 | 0.00 | 0.00 | 45 | 1009.1 |
| 20260505204218 | 25 | 186 | 4.8 | 27.4 | 0.00 | 0.00 | 0.00 | 45 | 1009.1 |
| 20260505203715 | 26 | 187 | 8.0 | 25.7 | 0.00 | 0.00 | 0.00 | 44 | 1009.1 |
| 20260505203212 | 27 | 230 | 9.7 | 19.3 | 0.00 | 0.00 | 0.00 | 42 | 1009.2 |
| 20260505202708 | 28 | 320 | 1.6 | 38.6 | 0.00 | 0.00 | 0.00 | 32 | 1009.1 |
| 20260505202204 | 26 | 180 | 3.2 | 14.5 | 0.00 | 0.00 | 0.00 | 42 | 1009.4 |
| 20260505201700 | 25 | 185 | 6.4 | 17.7 | 0.00 | 0.00 | 0.00 | 46 | 1009.2 |
| 20260505201159 | 25 | 166 | 6.4 | 11.3 | 0.00 | 0.00 | 0.00 | 48 | 1009.3 |
| 20260505200656 | 25 | 157 | 8.0 | 14.5 | 0.00 | 0.00 | 0.00 | 48 | 1009.3 |
| 20260505200153 | 26 | 153 | 8.0 | 12.9 | 0.00 | 0.00 | 0.00 | 47 | 1009.4 |
| 20260505195649 | 25 | 187 | 1.6 | 14.5 | 0.00 | 0.00 | 0.00 | 49 | 1009.6 |
| 20260505195146 | 25 | 172 | 8.0 | 16.1 | 0.00 | 0.00 | 0.00 | 48 | 1009.5 |
| 20260505194643 | 26 | 229 | 9.7 | 14.5 | 0.00 | 0.00 | 0.00 | 48 | 1009.6 |
| 20260505194139 | 25 | 138 | 6.4 | 14.5 | 0.00 | 0.00 | 0.00 | 49 | 1009.6 |
| 20260505193636 | 25 | 197 | 3.2 | 11.3 | 0.00 | 0.00 | 0.00 | 49 | 1009.7 |
| 20260505193133 | 25 | 197 | 4.8 | 16.1 | 0.00 | 0.00 | 0.00 | 50 | 1009.9 |
| 20260505192632 | 25 | 144 | 0.0 | 11.3 | 0.00 | 0.00 | 0.00 | 49 | 1010.1 |
| 20260505192128 | 25 | 46 | 3.2 | 12.9 | 0.00 | 0.00 | 0.00 | 50 | 1010.1 |
| 20260505191622 | 26 | 187 | 3.2 | 14.5 | 0.00 | 0.00 | 0.00 | 48 | 1010.1 |
| 20260505191119 | 25 | 157 | 4.8 | 17.7 | 0.00 | 0.00 | 0.00 | 49 | 1010.0 |
| 20260505190615 | 25 | 170 | 6.4 | 20.9 | 0.00 | 0.00 | 0.00 | 50 | 1010.4 |
| 20260505190110 | 26 | 159 | 6.4 | 16.1 | 0.00 | 0.00 | 0.00 | 49 | 1010.5 |
| 20260505185607 | 25 | 190 | 12.9 | 16.1 | 0.00 | 0.00 | 0.00 | 50 | 1010.8 |
| 20260505185103 | 25 | 137 | 9.7 | 16.1 | 0.00 | 0.00 | 0.00 | 51 | 1010.8 |
| 20260505184559 | 23 | 181 | 9.7 | 20.9 | 0.00 | 0.00 | 0.00 | 52 | 1010.8 |
| 20260505184056 | 25 | 200 | 3.2 | 17.7 | 0.00 | 0.00 | 0.00 | 51 | 1010.7 |
| 20260505183553 | 25 | 158 | 12.9 | 16.1 | 0.00 | 0.00 | 0.00 | 50 | 1011.1 |
| 20260505183051 | 25 | 147 | 8.0 | 22.5 | 0.00 | 0.00 | 0.00 | 51 | 1011.0 |
| 20260505182547 | 25 | 147 | 6.4 | 14.5 | 0.00 | 0.00 | 0.00 | 51 | 1011.0 |
| 20260505182044 | 25 | 172 | 4.8 | 19.3 | 0.00 | 0.00 | 0.00 | 50 | 1011.0 |
| 20260505181540 | 24 | 183 | 9.7 | 14.5 | 0.00 | 0.00 | 0.00 | 51 | 1011.0 |
| 20260505181038 | 25 | 128 | 4.8 | 16.1 | 0.00 | 0.00 | 0.00 | 51 | 1011.0 |
| 20260505180533 | 24 | 170 | 8.0 | 16.1 | 0.00 | 0.00 | 0.00 | 51 | 1011.0 |
| 20260505180032 | 25 | 100 | 3.2 | 19.3 | 0.00 | 0.00 | 0.00 | 50 | 1011.0 |
| 20260505175532 | 25 | 150 | 4.8 | 20.9 | 0.00 | 0.00 | 0.00 | 50 | 1011.1 |
| 20260505175029 | 25 | 124 | 11.3 | 17.7 | 0.00 | 0.00 | 0.00 | 49 | 1011.1 |
| 20260505174526 | 25 | 149 | 4.8 | 17.7 | 0.00 | 0.00 | 0.00 | 50 | 1011.2 |
| 20260505174022 | 25 | 213 | 6.4 | 16.1 | 0.00 | 0.00 | 0.00 | 49 | 1011.3 |
| 20260505173519 | 26 | 133 | 6.4 | 11.3 | 0.00 | 0.00 | 0.00 | 48 | 1011.2 |
| 20260505173016 | 25 | 99 | 3.2 | 14.5 | 0.00 | 0.00 | 0.00 | 49 | 1011.3 |
| 20260505172514 | 26 | 210 | 3.2 | 11.3 | 0.00 | 0.00 | 0.00 | 48 | 1011.3 |
| 20260505172009 | 26 | 89 | 0.0 | 14.5 | 0.00 | 0.00 | 0.00 | 47 | 1011.4 |
| 20260505171505 | 26 | 159 | 8.0 | 17.7 | 0.00 | 0.00 | 0.00 | 48 | 1011.3 |
| 20260505171002 | 26 | 214 | 4.8 | 11.3 | 0.00 | 0.00 | 0.00 | 49 | 1011.3 |
| 20260505170459 | 25 | 146 | 4.8 | 17.7 | 0.00 | 0.00 | 0.00 | 49 | 1011.4 |
| 20260505165954 | 25 | 104 | 6.4 | 16.1 | 0.00 | 0.00 | 0.00 | 49 | 1011.6 |
| 20260505165450 | 25 | 175 | 3.2 | 14.5 | 0.00 | 0.00 | 0.00 | 48 | 1011.7 |
| 20260505164946 | 25 | 214 | 4.8 | 19.3 | 0.00 | 0.00 | 0.00 | 48 | 1011.7 |
| 20260505164442 | 26 | 151 | 6.4 | 12.9 | 0.00 | 0.00 | 0.00 | 47 | 1011.6 |
| 20260505163940 | 26 | 169 | 8.0 | 12.9 | 0.00 | 0.00 | 0.00 | 46 | 1011.6 |
| 20260505163439 | 26 | 152 | 6.4 | 8.0 | 0.00 | 0.00 | 0.00 | 45 | 1011.7 |
| 20260505162938 | 25 | 164 | 3.2 | 17.7 | 0.00 | 0.00 | 0.00 | 47 | 1012.0 |
| 20260505162433 | 25 | 113 | 4.8 | 14.5 | 0.00 | 0.00 | 0.00 | 46 | 1011.8 |
| 20260505161930 | 26 | 191 | 6.4 | 14.5 | 0.00 | 0.00 | 0.00 | 46 | 1012.1 |
| 20260505161427 | 25 | 283 | 4.8 | 14.5 | 0.00 | 0.00 | 0.00 | 46 | 1011.9 |
| 20260505160924 | 25 | 191 | 3.2 | 8.0 | 0.00 | 0.00 | 0.00 | 48 | 1012.0 |
| 20260505160423 | 25 | 137 | 6.4 | 16.1 | 0.00 | 0.00 | 0.00 | 49 | 1012.0 |
| 20260505152858 | 25 | 253 | 6.4 | 12.9 | 0.00 | 0.00 | 0.00 | 47 | 1012.3 |
| 20260505152355 | 25 | 135 | 6.4 | 14.5 | 0.00 | 0.00 | 0.00 | 47 | 1012.3 |
| 20260505151849 | 25 | 179 | 9.7 | 17.7 | 0.00 | 0.00 | 0.00 | 47 | 1012.4 |
| 20260505151347 | 24 | 193 | 6.4 | 20.9 | 0.00 | 0.00 | 0.00 | 50 | 1012.8 |
| 20260505150843 | 24 | 276 | 3.2 | 11.3 | 0.00 | 0.00 | 0.00 | 50 | 1012.8 |
| 20260505150340 | 24 | 154 | 9.7 | 11.3 | 0.00 | 0.00 | 0.00 | 50 | 1012.8 |